ELY5112 LLBG-LCLK

Flight info

Callsign ELY5112
Flight time 0h 52m
Altitude 26000
Route DAFNA DCT VELOX N131 EMEDA DCT BOSIS
Aircraft B738/M-SDE2E3FGHIRWXY/LB1

Departure

Time 2026-05-06 17:54
Airport Ben Gurion International Airport (LLBG)

Arrival

Time 2026-05-06 18:46
Airport Larnaca International Airport (LCLK)
Time Latitude Longitude Altitude Speed Heading
2026-05-06 17:14 31.99636 34.89164 119 ft 0 kts 108°
2026-05-06 17:39 31.99637 34.89162 119 ft 2 kts 108°
2026-05-06 17:39 31.99642 34.89143 115 ft 2 kts 108°
2026-05-06 17:39 31.99647 34.89125 115 ft 2 kts 109°
2026-05-06 17:40 31.99652 34.89106 116 ft 2 kts 109°
2026-05-06 17:40 31.99658 34.89088 117 ft 2 kts 109°
2026-05-06 17:40 31.99663 34.89069 114 ft 2 kts 104°
2026-05-06 17:40 31.99658 34.89053 115 ft 2 kts 25°
2026-05-06 17:41 31.99642 34.89048 116 ft 2 kts 11°
2026-05-06 17:41 31.99633 34.89045 117 ft 0 kts 17°
2026-05-06 17:41 31.99641 34.89048 116 ft 2 kts 18°
2026-05-06 17:41 31.99661 34.89056 115 ft 3 kts 19°
2026-05-06 17:42 31.99682 34.89065 115 ft 3 kts 19°
2026-05-06 17:42 31.99684 34.89065 115 ft 0 kts 19°
2026-05-06 17:44 31.99687 34.89066 115 ft 2 kts 19°
2026-05-06 17:44 31.99743 34.89088 117 ft 14 kts 18°
2026-05-06 17:44 31.99836 34.89124 119 ft 12 kts 19°
2026-05-06 17:44 31.99881 34.89196 118 ft 12 kts 97°
2026-05-06 17:45 31.99837 34.89275 117 ft 12 kts 125°
2026-05-06 17:45 31.99810 34.89323 117 ft 0 kts 122°
2026-05-06 17:45 31.99785 34.89371 117 ft 21 kts 122°
2026-05-06 17:45 31.99723 34.89528 117 ft 21 kts 114°
2026-05-06 17:46 31.99692 34.89637 119 ft 11 kts 89°
2026-05-06 17:46 31.99731 34.89715 118 ft 13 kts 52°
2026-05-06 17:46 31.99805 34.89793 115 ft 15 kts 12°
2026-05-06 17:46 31.99903 34.89750 118 ft 15 kts 332°
2026-05-06 17:47 31.99996 34.89694 118 ft 15 kts 333°
2026-05-06 17:47 32.00084 34.89641 119 ft 14 kts 333°
2026-05-06 17:47 32.00169 34.89590 117 ft 13 kts 330°
2026-05-06 17:47 32.00232 34.89516 118 ft 13 kts 302°
2026-05-06 17:48 32.00279 34.89428 118 ft 13 kts 301°
2026-05-06 17:48 32.00323 34.89341 117 ft 12 kts 301°
2026-05-06 17:48 32.00366 34.89257 118 ft 12 kts 301°
2026-05-06 17:48 32.00428 34.89136 117 ft 23 kts 301°
2026-05-06 17:49 32.00523 34.88987 119 ft 23 kts 337°
2026-05-06 17:49 32.00676 34.89057 117 ft 19 kts 30°
2026-05-06 17:49 32.00826 34.89157 116 ft 32 kts 29°
2026-05-06 17:49 32.01033 34.89291 118 ft 34 kts 28°
2026-05-06 17:50 32.01197 34.89394 117 ft 24 kts 28°
2026-05-06 17:50 32.01339 34.89483 118 ft 23 kts 30°
2026-05-06 17:50 32.01475 34.89573 119 ft 22 kts 27°
2026-05-06 17:50 32.01594 34.89614 116 ft 13 kts 319°
2026-05-06 17:51 32.01600 34.89514 117 ft 13 kts 258°
2026-05-06 17:51 32.01584 34.89410 117 ft 16 kts 260°
2026-05-06 17:51 32.01590 34.89280 117 ft 16 kts 310°
2026-05-06 17:51 32.01653 34.89261 118 ft 0 kts 349°
2026-05-06 17:52 32.01663 34.89258 115 ft 7 kts 348°
2026-05-06 17:52 32.01732 34.89237 117 ft 13 kts 336°
2026-05-06 17:52 32.01760 34.89178 117 ft 0 kts 263°
2026-05-06 17:53 32.01754 34.89134 117 ft 9 kts 261°
2026-05-06 17:53 32.01745 34.89065 116 ft 10 kts 259°
2026-05-06 17:53 32.01675 34.88652 117 ft 97 kts 259°
2026-05-06 17:54 32.01498 34.87535 122 ft 177 kts 259°
2026-05-06 17:54 32.01252 34.85939 703 ft 199 kts 262°
2026-05-06 17:54 32.00991 34.84390 2172 ft 188 kts 259°
2026-05-06 17:54 32.00676 34.82839 3146 ft 206 kts 258°
2026-05-06 17:55 32.00307 34.81072 3609 ft 234 kts 257°
2026-05-06 17:55 31.99893 34.79108 4036 ft 266 kts 257°
2026-05-06 17:55 31.99414 34.76826 4044 ft 306 kts 258°
2026-05-06 17:55 31.99359 34.74266 4629 ft 314 kts 283°
2026-05-06 17:56 32.00035 34.71898 6014 ft 283 kts 291°
2026-05-06 17:56 32.00693 34.70001 7201 ft 227 kts 291°
2026-05-06 17:56 32.01053 34.68886 7548 ft 213 kts 289°
2026-05-06 17:56 32.01713 34.66724 8026 ft 230 kts 289°
2026-05-06 17:57 32.02315 34.64754 8048 ft 280 kts 289°
2026-05-06 17:57 32.02795 34.62354 8192 ft 316 kts 271°
2026-05-06 17:57 32.02771 34.59838 9640 ft 292 kts 270°
2026-05-06 17:57 32.02824 34.57471 9961 ft 285 kts 274°
2026-05-06 17:58 32.02937 34.55903 10012 ft 284 kts 275°
2026-05-06 17:58 32.03117 34.53574 10007 ft 286 kts 275°
2026-05-06 17:58 32.03282 34.51237 10014 ft 287 kts 274°
2026-05-06 17:58 32.03607 34.48957 9986 ft 285 kts 291°
2026-05-06 17:59 32.04659 34.47002 10012 ft 284 kts 313°
2026-05-06 17:59 32.06277 34.45672 10006 ft 286 kts 334°
2026-05-06 17:59 32.08210 34.45118 9991 ft 289 kts 356°
2026-05-06 17:59 32.10216 34.45302 10017 ft 289 kts
2026-05-06 18:00 32.12202 34.45634 10013 ft 288 kts
2026-05-06 18:00 32.14187 34.45931 10006 ft 286 kts
2026-05-06 18:00 32.16168 34.46174 10005 ft 285 kts
2026-05-06 18:00 32.17470 34.46332 10006 ft 284 kts
2026-05-06 18:01 32.18401 34.46448 10008 ft 283 kts
2026-05-06 18:01 32.20338 34.46695 10011 ft 282 kts
2026-05-06 18:01 32.22286 34.46950 10017 ft 281 kts
2026-05-06 18:01 32.24229 34.47207 10020 ft 280 kts
2026-05-06 18:02 32.26163 34.47463 10024 ft 279 kts
2026-05-06 18:02 32.28099 34.47719 10024 ft 279 kts
2026-05-06 18:02 32.30021 34.47974 10026 ft 278 kts
2026-05-06 18:02 32.31935 34.48003 9996 ft 273 kts 344°
2026-05-06 18:03 32.33640 34.47126 10018 ft 266 kts 321°
2026-05-06 18:03 32.34990 34.45655 10038 ft 263 kts 312°
2026-05-06 18:03 32.36244 34.44086 10046 ft 262 kts 312°
2026-05-06 18:03 32.37520 34.42549 10058 ft 262 kts 314°
2026-05-06 18:04 32.38828 34.41046 10064 ft 262 kts 314°
2026-05-06 18:04 32.40136 34.39550 10065 ft 261 kts 314°
2026-05-06 18:04 32.41435 34.38056 10118 ft 258 kts 314°
2026-05-06 18:04 32.42674 34.36627 10519 ft 240 kts 313°
2026-05-06 18:05 32.43853 34.35260 10543 ft 241 kts 313°
2026-05-06 18:05 32.45050 34.33874 10553 ft 241 kts 316°
2026-05-06 18:05 32.46579 34.33049 10542 ft 248 kts 348°
2026-05-06 18:05 32.48289 34.32814 10650 ft 243 kts 351°
2026-05-06 18:06 32.49949 34.32601 11162 ft 238 kts 348°
2026-05-06 18:06 32.51601 34.32311 11651 ft 247 kts 346°
2026-05-06 18:06 32.53363 34.31974 12186 ft 258 kts 346°
2026-05-06 18:06 32.55105 34.31646 12663 ft 253 kts 346°
2026-05-06 18:07 32.56839 34.31322 13274 ft 249 kts 345°
2026-05-06 18:07 32.58556 34.31003 13749 ft 254 kts 345°
2026-05-06 18:07 32.60322 34.30673 14128 ft 259 kts 345°
2026-05-06 18:07 32.62108 34.30341 14472 ft 265 kts 345°
2026-05-06 18:08 32.63974 34.29997 14851 ft 271 kts 345°
2026-05-06 18:08 32.65855 34.29651 15221 ft 276 kts 345°
2026-05-06 18:08 32.67753 34.29303 15593 ft 281 kts 345°
2026-05-06 18:08 32.69703 34.28946 15962 ft 286 kts 345°
2026-05-06 18:09 32.71689 34.28584 16339 ft 290 kts 345°
2026-05-06 18:09 32.73704 34.28216 16729 ft 294 kts 345°
2026-05-06 18:09 32.75738 34.27845 17115 ft 298 kts 345°
2026-05-06 18:09 32.77831 34.27461 17535 ft 312 kts 345°
2026-05-06 18:10 32.80031 34.27054 18013 ft 328 kts 345°
2026-05-06 18:10 32.82345 34.26626 18470 ft 343 kts 345°
2026-05-06 18:10 32.84754 34.26183 18880 ft 357 kts 345°
2026-05-06 18:10 32.87226 34.25731 19296 ft 370 kts 345°
2026-05-06 18:11 32.89818 34.25257 19716 ft 382 kts 345°
2026-05-06 18:11 32.92435 34.24785 20123 ft 378 kts 345°
2026-05-06 18:11 32.95016 34.24322 20529 ft 372 kts 345°
2026-05-06 18:11 32.97564 34.23863 20946 ft 367 kts 345°
2026-05-06 18:12 33.00068 34.23410 21358 ft 363 kts 345°
2026-05-06 18:12 33.02589 34.22947 21864 ft 368 kts 345°
2026-05-06 18:12 33.05129 34.22478 22360 ft 372 kts 345°
2026-05-06 18:12 33.07688 34.22006 22305 ft 368 kts 345°
2026-05-06 18:13 33.10192 34.21550 22260 ft 359 kts 345°
2026-05-06 18:13 33.12626 34.21109 22293 ft 347 kts 344°
2026-05-06 18:13 33.14996 34.20677 22151 ft 341 kts 344°
2026-05-06 18:13 33.17290 34.20256 22020 ft 335 kts 344°
2026-05-06 18:14 33.19587 34.19832 21949 ft 336 kts 344°
2026-05-06 18:14 33.21940 34.19388 21988 ft 352 kts 344°
2026-05-06 18:14 33.24030 34.18991 22002 ft 368 kts 345°
2026-05-06 18:14 33.26619 34.18503 21962 ft 387 kts 345°
2026-05-06 18:15 33.29366 34.17987 21671 ft 409 kts 346°
2026-05-06 18:15 33.32168 34.17474 21437 ft 402 kts 346°
2026-05-06 18:15 33.34897 34.16984 21169 ft 391 kts 346°
2026-05-06 18:15 33.37559 34.16504 20914 ft 381 kts 346°
2026-05-06 18:16 33.40147 34.16033 20657 ft 372 kts 346°
2026-05-06 18:16 33.42664 34.15572 20363 ft 360 kts 345°
2026-05-06 18:16 33.45085 34.15125 20000 ft 352 kts 345°
2026-05-06 18:16 33.47476 34.14682 19668 ft 344 kts 345°
2026-05-06 18:17 33.49816 34.14248 19332 ft 336 kts 345°
2026-05-06 18:17 33.52102 34.13822 19017 ft 329 kts 345°
2026-05-06 18:17 33.54336 34.13408 18813 ft 321 kts 345°
2026-05-06 18:17 33.56523 34.13001 18565 ft 316 kts 345°
2026-05-06 18:18 33.58697 34.12594 18335 ft 316 kts 345°
2026-05-06 18:18 33.60861 34.12189 18072 ft 314 kts 345°
2026-05-06 18:18 33.63023 34.11785 17807 ft 314 kts 345°
2026-05-06 18:18 33.65178 34.11383 17555 ft 314 kts 345°
2026-05-06 18:19 33.67341 34.10979 17299 ft 314 kts 345°
2026-05-06 18:19 33.69483 34.10580 17049 ft 314 kts 345°
2026-05-06 18:19 33.71645 34.10177 16831 ft 313 kts 346°
2026-05-06 18:19 33.73785 34.09778 16653 ft 311 kts 346°
2026-05-06 18:20 33.75928 34.09379 16447 ft 310 kts 346°
2026-05-06 18:20 33.78072 34.08977 16409 ft 318 kts 346°
2026-05-06 18:20 33.80310 34.08555 16563 ft 329 kts 346°
2026-05-06 18:20 33.82542 34.07994 16580 ft 326 kts 337°
2026-05-06 18:21 33.84694 34.06976 16644 ft 340 kts 332°
2026-05-06 18:21 33.86901 34.05824 16592 ft 360 kts 333°
2026-05-06 18:21 33.89314 34.04688 16606 ft 374 kts 336°
2026-05-06 18:21 33.91712 34.03731 16589 ft 358 kts 338°
2026-05-06 18:22 33.94033 34.02880 16539 ft 339 kts 339°
2026-05-06 18:22 33.96235 34.02064 16375 ft 324 kts 338°
2026-05-06 18:22 33.98342 34.01254 16244 ft 309 kts 337°
2026-05-06 18:22 34.00343 34.00458 16103 ft 298 kts 337°
2026-05-06 18:23 34.02279 33.99669 15974 ft 291 kts 336°
2026-05-06 18:23 34.04196 33.98875 15856 ft 293 kts 336°
2026-05-06 18:23 34.06133 33.98064 15746 ft 297 kts 337°
2026-05-06 18:23 34.08091 33.97242 15624 ft 298 kts 337°
2026-05-06 18:24 34.10043 33.96423 15498 ft 296 kts 337°
2026-05-06 18:24 34.11962 33.95617 15343 ft 297 kts 337°
2026-05-06 18:24 34.13928 33.94789 15055 ft 301 kts 337°
2026-05-06 18:24 34.15894 33.93961 14831 ft 297 kts 338°
2026-05-06 18:25 34.17837 33.93144 14588 ft 294 kts 338°
2026-05-06 18:25 34.19759 33.92335 14349 ft 291 kts 338°
2026-05-06 18:25 34.21667 33.91531 14115 ft 290 kts 338°
2026-05-06 18:25 34.23569 33.90728 13880 ft 289 kts 338°
2026-05-06 18:26 34.25468 33.89926 13623 ft 289 kts 339°
2026-05-06 18:26 34.27362 33.89126 13353 ft 288 kts 339°
2026-05-06 18:26 34.29254 33.88327 13094 ft 287 kts 339°
2026-05-06 18:26 34.31141 33.87530 12841 ft 287 kts 339°
2026-05-06 18:27 34.33026 33.86732 12589 ft 287 kts 339°
2026-05-06 18:27 34.34904 33.85938 12330 ft 286 kts 339°
2026-05-06 18:27 34.36764 33.85151 12080 ft 285 kts 339°
2026-05-06 18:27 34.38634 33.84359 11834 ft 285 kts 339°
2026-05-06 18:28 34.40501 33.83567 11580 ft 284 kts 339°
2026-05-06 18:28 34.42368 33.82776 11224 ft 284 kts 339°
2026-05-06 18:28 34.44240 33.81982 10848 ft 283 kts 339°
2026-05-06 18:28 34.46079 33.81202 10487 ft 278 kts 339°
2026-05-06 18:29 34.47894 33.80432 10157 ft 273 kts 340°
2026-05-06 18:29 34.49628 33.79678 9879 ft 265 kts 339°
2026-05-06 18:29 34.51366 33.78901 9524 ft 265 kts 339°
2026-05-06 18:29 34.53056 33.78142 9393 ft 257 kts 339°
2026-05-06 18:30 34.54737 33.77386 8910 ft 264 kts 339°
2026-05-06 18:30 34.56459 33.76615 8591 ft 264 kts 339°
2026-05-06 18:30 34.58172 33.75848 8388 ft 259 kts 340°
2026-05-06 18:30 34.59829 33.75107 8346 ft 248 kts 340°
2026-05-06 18:31 34.61437 33.74388 8109 ft 246 kts 340°
2026-05-06 18:31 34.63057 33.73783 7902 ft 242 kts 354°
2026-05-06 18:31 34.64707 33.74037 7660 ft 240 kts 21°
2026-05-06 18:31 34.66093 33.75147 7417 ft 240 kts 46°
2026-05-06 18:32 34.66928 33.76895 7162 ft 242 kts 73°
2026-05-06 18:32 34.67013 33.78921 6922 ft 244 kts 101°
2026-05-06 18:32 34.66301 33.80782 6681 ft 246 kts 128°
2026-05-06 18:32 34.64985 33.82095 6449 ft 246 kts 152°
2026-05-06 18:33 34.63417 33.82905 6230 ft 245 kts 159°
2026-05-06 18:33 34.61812 33.83621 5966 ft 245 kts 159°
2026-05-06 18:33 34.60214 33.84338 5711 ft 245 kts 159°
2026-05-06 18:33 34.58613 33.85068 5460 ft 245 kts 159°
2026-05-06 18:34 34.56970 33.85460 5162 ft 247 kts 184°
2026-05-06 18:34 34.55376 33.84794 4915 ft 246 kts 216°
2026-05-06 18:34 34.54227 33.83284 4692 ft 241 kts 243°
2026-05-06 18:34 34.53753 33.81373 4434 ft 237 kts 269°
2026-05-06 18:35 34.54023 33.79446 4237 ft 230 kts 296°
2026-05-06 18:35 34.54902 33.77883 4134 ft 223 kts 317°
2026-05-06 18:35 34.56189 33.76836 4055 ft 228 kts 337°
2026-05-06 18:35 34.57743 33.76105 4055 ft 248 kts 341°
2026-05-06 18:36 34.59384 33.75398 4016 ft 251 kts 341°
2026-05-06 18:36 34.61023 33.74684 4020 ft 249 kts 341°
2026-05-06 18:36 34.62648 33.73959 4013 ft 247 kts 340°
2026-05-06 18:36 34.64255 33.73231 4009 ft 246 kts 340°
2026-05-06 18:37 34.65853 33.72501 4014 ft 245 kts 340°
2026-05-06 18:37 34.66897 33.72022 4019 ft 238 kts 340°
2026-05-06 18:37 34.68890 33.71107 3883 ft 220 kts 340°
2026-05-06 18:37 34.70279 33.70475 3808 ft 206 kts 342°
2026-05-06 18:38 34.71624 33.70147 3718 ft 193 kts 360°
2026-05-06 18:38 34.72894 33.70512 3694 ft 189 kts 28°
2026-05-06 18:38 34.73988 33.71466 3772 ft 195 kts 41°
2026-05-06 18:38 34.74891 33.72671 3754 ft 188 kts 53°
2026-05-06 18:39 34.75632 33.73942 3761 ft 182 kts 52°
2026-05-06 18:39 34.76450 33.75111 3745 ft 181 kts 46°
2026-05-06 18:39 34.77349 33.76175 3750 ft 181 kts 41°
2026-05-06 18:40 34.79530 33.78196 3503 ft 231 kts 31°
2026-05-06 18:40 34.80998 33.79119 3258 ft 240 kts 24°
2026-05-06 18:40 34.82542 33.79854 2990 ft 241 kts 18°
2026-05-06 18:40 34.84150 33.80390 2741 ft 238 kts 11°
2026-05-06 18:41 34.85787 33.80703 2489 ft 237 kts
2026-05-06 18:41 34.87424 33.80795 2235 ft 232 kts 358°
2026-05-06 18:41 34.89029 33.80670 1999 ft 230 kts 352°
2026-05-06 18:41 34.90620 33.80338 1754 ft 233 kts 346°
2026-05-06 18:42 34.92182 33.79794 1580 ft 233 kts 340°
2026-05-06 18:42 34.93687 33.79047 1583 ft 234 kts 334°
2026-05-06 18:42 34.95136 33.78135 1528 ft 233 kts 328°
2026-05-06 18:42 34.96084 33.76753 1491 ft 199 kts 284°
2026-05-06 18:43 34.96022 33.75243 1554 ft 172 kts 256°
2026-05-06 18:43 34.95608 33.73783 1582 ft 196 kts 247°
2026-05-06 18:43 34.95032 33.72398 1490 ft 172 kts 242°
2026-05-06 18:43 34.94436 33.71196 1281 ft 156 kts 233°
2026-05-06 18:44 34.93794 33.70301 1308 ft 139 kts 227°
2026-05-06 18:44 34.93305 33.69663 1386 ft 159 kts 228°
2026-05-06 18:44 34.92541 33.68694 1346 ft 162 kts 227°
2026-05-06 18:44 34.91725 33.67715 1303 ft 167 kts 225°
2026-05-06 18:45 34.90883 33.66698 1086 ft 168 kts 225°
2026-05-06 18:45 34.90080 33.65729 754 ft 160 kts 225°
2026-05-06 18:45 34.89298 33.64768 430 ft 161 kts 226°
2026-05-06 18:45 34.88533 33.63827 143 ft 154 kts 225°
2026-05-06 18:46 34.87790 33.62917 22 ft 141 kts 225°
2026-05-06 18:46 34.87275 33.62283 20 ft 56 kts 225°
2026-05-06 18:46 34.87086 33.62049 22 ft 10 kts 225°
2026-05-06 18:46 34.87026 33.61968 21 ft 14 kts 229°
2026-05-06 18:47 34.86984 33.61866 21 ft 13 kts 262°
2026-05-06 18:47 34.86972 33.61798 22 ft 0 kts 255°
2026-05-06 18:47 34.86968 33.61780 21 ft 3 kts 255°
2026-05-06 18:48 34.86957 33.61738 22 ft 9 kts 250°
2026-05-06 18:48 34.86952 33.61719 20 ft 0 kts 253°
2026-05-06 18:48 34.86952 33.61718 20 ft 0 kts 253°
2026-05-06 18:48 34.86947 33.61686 22 ft 9 kts 271°
2026-05-06 18:49 34.86934 33.61617 20 ft 8 kts 253°
2026-05-06 18:49 34.86916 33.61549 20 ft 8 kts 251°
2026-05-06 18:49 34.86900 33.61484 21 ft 8 kts 254°
2026-05-06 18:49 34.86882 33.61421 20 ft 8 kts 254°
2026-05-06 18:50 34.86899 33.61354 21 ft 10 kts 311°
2026-05-06 18:50 34.86955 33.61287 19 ft 13 kts 316°
2026-05-06 18:50 34.87019 33.61212 19 ft 8 kts 315°
2026-05-06 18:50 34.87040 33.61180 19 ft 6 kts 290°
2026-05-06 18:51 34.87016 33.61134 19 ft 7 kts 226°
2026-05-06 18:51 34.86991 33.61103 19 ft 0 kts 225°
2026-05-06 18:51 34.86985 33.61096 19 ft 0 kts 225°